Location: ???????
(31.2351°N, 45.5518°E)
Time: 04:05:21
(UTC+00:00)

Daily predictions for brighter satellites

Satellite Brightness Start Highest point End
(mag) Time Altitude Azimuth Time Altitude Azimuth Time Altitude Azimuth
MSX 4.3 00:07:10 10° NNE 00:11:52 58° NE 00:11:52 58° NE
Cosmos 1980 Rocket 3.8 00:23:49 23° NNW 00:23:49 23° NNW 00:26:15 10° N
Cosmos 2322 Rocket 3.0 00:26:07 37° SSE 00:27:41 46° ESE 00:33:05 10° NNE
Cosmos 1934 Rocket 3.9 00:25:26 10° N 00:30:54 73° NNW 00:30:54 73° NNW
Cosmos 2263 Rocket 3.7 00:30:19 10° N 00:35:30 36° ENE 00:40:39 10° SE
SL-16 R/B 2.3 00:35:54 64° SSE 00:36:38 73° ESE 00:42:18 10° NNE
DELTA 4 R/B 4.3 00:31:38 39° W 00:38:53 66° SSW 00:44:58 10° ESE
Cosmos 1707 Rocket 4.5 00:43:16 32° SE 00:44:48 46° E 00:48:57 10° NNE
Meteor 1-10 Rocket 4.1 00:44:22 55° S 00:45:45 88° W 00:51:37 10° N
Skynet4D Del rocket 3.7 00:53:49 54° SSW 00:54:19 56° S 01:00:07 10° ESE
Cosmos 1605 Rocket 3.9 00:51:42 10° N 00:58:06 80° W 01:04:29 10° S
IDEFIX/ARIANE 42P 4.2 00:53:57 10° NNW 00:56:03 20° NNW 00:56:03 20° NNW
Cosmos 44 Rocket 3.7 00:59:03 31° S 01:01:02 56° ESE 01:05:42 10° NE
Meteor 2-6 Rocket 4.4 01:01:17 49° W 01:01:23 49° W 01:06:57 10° N
Cosmos 1666 4.0 00:58:39 10° N 01:02:14 40° E 01:05:47 10° SSE
Cosmos 1763 Rocket 3.4 01:01:08 53° SW 01:02:17 70° WNW 01:07:35 10° N
CZ-2C R/B 2.4 01:00:16 10° N 01:05:26 77° WNW 01:08:06 29° SSW
IRIDIUM 106 4.2 01:00:13 10° N 01:05:27 86° W 01:10:39 10° S
Meteor 1-5 Rocket 4.0 01:01:47 10° N 01:07:09 84° W 01:12:37 10° S
SL-4 R/B 2.9 01:10:15 37° NW 01:10:30 37° NW 01:14:53 10° NNE
Cosmos 1570 Rocket 4.2 01:08:47 10° S 01:14:02 71° ESE 01:19:21 10° NNE
Cosmos 1869 Rocket 3.4 01:12:25 10° NNW 01:16:41 61° W 01:20:55 10° S
Cosmos 1862 Rocket 4.3 01:14:37 10° S 01:18:55 54° E 01:23:10 10° NNE
Meteor 1-4 Rocket 4.5 01:25:23 16° NNW 01:25:23 16° NNW 01:26:22 10° NNW
Cosmos 1727 Rocket 4.1 01:19:17 12° SSW 01:24:59 52° W 01:31:10 10° N
H-2A R/B 2.4 01:23:10 10° S 01:27:14 41° W 01:31:25 10° NNW
SJ 16-02 1.2 01:23:04 10° NNW 01:27:25 62° WSW 01:31:44 10° S
PAYLOAD A 4.4 01:24:32 10° N 01:28:45 34° WNW 01:29:51 30° W
PSLV R/B 4.2 01:25:47 10° N 01:29:30 32° WNW 01:29:48 32° W
SJ-6F 4.3 01:25:36 10° N 01:29:41 71° WNW 01:33:43 10° SSW
Cosmos 540 Rocket 3.3 01:25:00 11° SSW 01:30:02 78° WNW 01:35:13 10° NNE
ADEOS Rocket 3.3 01:23:43 10° SSE 01:30:51 88° ENE 01:37:16 10° NNW
Cosmos 990 Rocket 3.9 01:27:31 10° NNW 01:32:44 90° E 01:37:57 10° SSE
Cosmos 2100 Rocket 4.2 01:28:05 10° N 01:34:28 77° E 01:40:48 10° S
Landsat 5 4.5 01:36:31 10° SSW 01:40:24 28° W 01:44:18 10° NW
USA 234 3.2 01:34:54 10° SE 01:41:26 88° SW 01:48:00 10° NW
Meteor 1-11 Rocket 3.7 01:39:00 10° NNW 01:44:38 60° W 01:50:06 10° S
CZ-4B R/B 1.1 01:43:07 10° S 01:46:11 82° W 01:49:21 10° NNW
Meteor 1-27 Rocket 4.3 01:42:59 10° SSW 01:48:28 39° WNW 01:54:00 10° N
Cosmos 2123 Rocket 4.2 01:42:29 10° S 01:48:41 76° E 01:54:56 10° N
ALOS 2.2 01:44:54 10° N 01:49:32 70° WNW 01:54:10 10° SSW
Cosmos 1459 Rocket 3.9 01:44:29 10° N 01:50:34 85° W 01:56:36 10° S
Okean 1 3.8 01:46:49 10° S 01:50:48 66° E 01:54:49 10° NNE
ERS-2 2.8 01:49:26 10° SSW 01:52:41 31° W 01:55:58 10° NW
COSMO-SKYMED 1 4.3 01:49:40 10° SE 01:53:38 36° ENE 01:57:37 10° N
Cosmos 2360 Rocket 2.3 01:49:17 10° SW 01:54:48 54° WNW 02:00:21 10° N
CZ-4B R/B 3.0 01:51:40 10° NNE 01:55:15 64° E 01:58:48 10° S
CZ-4B R/B 4.1 01:52:33 10° N 01:56:54 63° WNW 02:01:19 10° SSW
Chandra Rocket (1) 4.0 01:46:29 13° W 01:57:11 38° SW 02:01:39 10° SSE
METEOR-M 4.1 01:55:47 10° N 02:01:05 69° WNW 02:06:23 10° SSW
Cosmos 1689 Rocket 3.0 01:58:32 10° SSE 02:01:23 51° ENE 02:04:16 10° N
Cosmos 1484 Rocket 3.4 02:01:31 10° N 02:05:11 36° WNW 02:08:51 10° SW
Cosmos 1898 Rocket 3.8 02:02:25 10° NNW 02:07:24 44° WSW 02:12:24 10° S
Meteor PRIRODA 3.6 02:05:26 10° NNE 02:09:05 86° E 02:12:43 10° S
Cosmos 1536 3.6 02:07:28 10° NNW 02:11:04 31° W 02:14:39 10° SSW
FENGYUN 3A 4.0 02:06:10 10° N 02:11:15 44° WNW 02:16:20 10° SW
Cosmos 2322 Rocket 3.6 02:08:00 10° WSW 02:11:54 20° WNW 02:15:57 10° NNW
PSLV R/B 4.4 02:08:29 10° SSE 02:12:28 66° ENE 02:16:31 10° N
BREEZE-M DEB (TANK) 4.0 02:08:55 10° SW 02:12:34 88° NW 02:25:25 10° NE
Cosmos 1437 Rocket 3.0 02:10:29 10° SSW 02:14:05 44° W 02:17:45 10° N
Hubble Space Telescope 3.4 02:12:33 10° S 02:14:06 12° SSE 02:15:39 10° SE
X-37B 3.1 02:12:10 10° NNW 02:14:26 18° NNE 02:16:42 10° ENE
Cosmos 1703 Rocket 3.7 02:10:09 10° S 02:14:27 80° E 02:18:47 10° N
SL-8 R/B 3.9 02:10:12 10° NW 02:14:58 77° NE 02:19:44 10° SE
Meteor 1-31 Rocket 3.5 02:13:10 10° N 02:16:35 31° WNW 02:19:59 10° SW
ATLAS CENTAUR Rocket 2.7 02:04:55 10° W 02:16:36 65° SSW 02:20:34 10° ESE
Cosmos 2263 Rocket 3.2 02:14:41 10° NW 02:19:09 24° WSW 02:23:36 10° SSW
Cosmos 1908 Rocket 4.0 02:16:26 10° N 02:20:53 70° E 02:25:19 10° SSE
SL-16 R/B 4.0 02:18:47 10° W 02:21:16 13° WNW 02:23:46 10° NNW
Cosmos 2173 Rocket 4.4 02:17:11 10° NNW 02:23:06 43° W 02:29:04 10° SSW
Cosmos 1844 Rocket 3.3 02:19:57 10° NNW 02:25:34 64° ENE 02:31:10 10° SSE
GEOS 3 Rocket 4.3 02:20:22 10° NE 02:25:41 61° ESE 02:30:55 10° SSW
